AV279 Weather Reports


Display with metric or nautical units.
time (UTC)temp
F
wind
direction
speed
MPH
gust
MPH
rain 1hr
in
rain 24hr
in
rain mn
in
humidity
%
barometer
mb
20260906221640 64 0.0 0.0 0.00 0.00 0.00 70 1018.4
20260906220618 65 0.0 0.0 0.00 0.00 0.00 69 1018.5
20260906215618 65 0.0 0.0 0.00 0.00 0.00 68 1018.4
20260906214629 66 0.0 0.0 0.00 0.00 0.00 66 1018.2
20260906213631 67 0.0 0.0 0.00 0.00 0.00 65 1018.3
20260906212638 67 90 2.0 3.0 0.00 0.00 0.00 65 1018.1
20260906211618 67 90 1.0 3.0 0.00 0.00 0.00 64 1018.2
20260906210641 67 0.0 2.0 0.00 0.00 0.00 63 1018.4
20260906205620 68 113 1.0 2.0 0.00 0.00 0.00 64 1018.2
20260906204629 68 0.0 1.0 0.00 0.00 0.00 63 1018.4
20260906203710 69 113 1.0 2.0 0.00 0.00 0.00 62 1018.4
20260906202620 69 113 2.0 2.0 0.00 0.00 0.00 61 1018.4
20260906201850 69 113 1.0 3.0 0.00 0.00 0.00 60 1018.6
20260906201018 69 158 1.0 3.0 0.00 0.00 0.00 61 1018.5
20260906200217 69 90 2.0 2.0 0.00 0.00 0.00 61 1018.5
20260906195920 69 0.0 2.0 0.00 0.00 0.00 62 1018.6
20260906194920 68 203 1.0 1.0 0.00 0.00 0.00 62 1018.8
20260906193903 68 0.0 0.0 0.00 0.00 0.00 63 1018.8
20260906192920 69 0.0 0.0 0.00 0.00 0.00 63 1019.0
20260906191931 69 0.0 0.0 0.00 0.00 0.00 62 1019.1
20260906190920 70 0.0 0.0 0.00 0.00 0.00 60 1019.1
20260906185920 71 0.0 0.0 0.00 0.00 0.00 59 1019.2
20260906184941 71 0.0 0.0 0.00 0.00 0.00 58 1019.2
20260906183951 71 203 1.0 2.0 0.00 0.00 0.00 57 1019.4
20260906182931 72 0.0 0.0 0.00 0.00 0.00 57 1019.5
20260906181951 72 225 2.0 3.0 0.00 0.00 0.00 55 1019.4
20260906180920 73 248 2.0 3.0 0.00 0.00 0.00 54 1019.3
20260906175920 73 225 2.0 4.0 0.00 0.00 0.00 52 1019.3
20260906174920 74 248 4.0 7.0 0.00 0.00 0.00 54 1019.5
20260906173920 74 225 3.0 4.0 0.00 0.00 0.00 53 1019.3
20260906173136 74 158 1.0 2.0 0.00 0.00 0.00 55 1019.4
20260906172630 74 225 1.0 3.0 0.00 0.00 0.00 55 1019.5
20260906171620 74 180 1.0 2.0 0.00 0.00 0.00 56 1019.6
20260906170620 74 180 1.0 3.0 0.00 0.00 0.00 52 1019.5
20260906165630 75 0.0 2.0 0.00 0.00 0.00 53 1019.4
20260906164619 75 0.0 0.0 0.00 0.00 0.00 49 1019.4
20260906163619 76 90 2.0 2.0 0.00 0.00 0.00 49 1019.4
20260906162630 76 135 1.0 2.0 0.00 0.00 0.00 48 1019.3
20260906161630 76 90 2.0 3.0 0.00 0.00 0.00 49 1019.7
20260906160640 76 0.0 0.0 0.00 0.00 0.00 48 1019.9
20260906155620 76 270 1.0 4.0 0.00 0.00 0.00 47 1020.1
20260906154619 76 203 3.0 5.0 0.00 0.00 0.00 46 1020.4
20260906153620 76 203 4.0 6.0 0.00 0.00 0.00 46 1020.5
20260906152630 77 203 3.0 5.0 0.00 0.00 0.00 45 1020.6
20260906151630 77 248 4.0 7.0 0.00 0.00 0.00 45 1020.7
20260906150631 76 180 2.0 3.0 0.00 0.00 0.00 48 1020.7
20260906145630 76 203 4.0 8.0 0.00 0.00 0.00 45 1020.7
20260906144630 77 180 5.0 9.0 0.00 0.00 0.00 44 1020.7
20260906143630 77 225 2.0 5.0 0.00 0.00 0.00 47 1020.8
20260906142640 77 225 3.0 6.0 0.00 0.00 0.00 46 1020.8
20260906141630 77 225 4.0 6.0 0.00 0.00 0.00 43 1020.9
20260906140639 77 158 3.0 6.0 0.00 0.00 0.00 46 1020.9
20260906135702 77 203 3.0 6.0 0.00 0.00 0.00 45 1021.0
20260906134650 78 180 4.0 7.0 0.00 0.00 0.00 43 1021.2
20260906133619 78 270 2.0 4.0 0.00 0.00 0.00 45 1021.2
20260906132641 78 225 8.0 11.0 0.00 0.00 0.00 44 1021.3
20260906131619 78 158 3.0 6.0 0.00 0.00 0.00 46 1021.4
20260906130619 78 68 1.0 3.0 0.00 0.00 0.00 48 1021.5
20260906125619 78 180 3.0 6.0 0.00 0.00 0.00 48 1021.5
20260906124630 78 203 6.0 10.0 0.00 0.00 0.00 47 1021.8
20260906123835 78 225 6.0 9.0 0.00 0.00 0.00 48 1021.8
20260906123219 78 248 8.0 12.0 0.00 0.00 0.00 48 1021.9
20260906122230 77 180 6.0 11.0 0.00 0.00 0.00 50 1021.9
20260906121241 77 203 4.0 10.0 0.00 0.00 0.00 50 1021.9
20260906120219 77 180 6.0 9.0 0.00 0.00 0.00 50 1021.9
20260906115433 76 180 6.0 10.0 0.00 0.00 0.00 51 1021.9
20260906114819 76 248 8.0 15.0 0.00 0.00 0.00 52 1021.9
20260906113819 75 225 3.0 6.0 0.00 0.00 0.00 53 1022.0
20260906112819 76 203 6.0 10.0 0.00 0.00 0.00 54 1022.2
20260906111819 75 180 4.0 6.0 0.00 0.00 0.00 54 1022.3
20260906110900 74 158 2.0 4.0 0.00 0.00 0.00 55 1022.4
20260906105819 74 180 5.0 6.0 0.00 0.00 0.00 57 1022.5
20260906104841 74 225 2.0 5.0 0.00 0.00 0.00 58 1022.9
20260906103830 74 158 3.0 6.0 0.00 0.00 0.00 58 1022.9
20260906102850 73 158 5.0 10.0 0.00 0.00 0.00 60 1023.1
20260906101819 72 225 5.0 7.0 0.00 0.00 0.00 60 1023.1
20260906100900 72 225 6.0 9.0 0.00 0.00 0.00 61 1023.1
20260906095819 71 180 4.0 9.0 0.00 0.00 0.00 63 1023.1
20260906094819 71 203 6.0 8.0 0.00 0.00 0.00 63 1023.3
20260906093830 71 180 4.0 8.0 0.00 0.00 0.00 64 1023.3
20260906092849 70 180 3.0 6.0 0.00 0.00 0.00 64 1023.3
20260906091902 70 180 6.0 9.0 0.00 0.00 0.00 65 1023.4
20260906090802 69 248 2.0 13.0 0.00 0.00 0.00 67 1023.4
20260906085819 68 180 5.0 7.0 0.00 0.00 0.00 70 1023.7
20260906084839 67 225 5.0 9.0 0.00 0.00 0.00 70 1023.8
20260906083829 66 180 1.0 2.0 0.00 0.00 0.00 74 1023.7
20260906082839 65 135 2.0 4.0 0.00 0.00 0.00 75 1023.9
20260906081819 64 158 2.0 7.0 0.00 0.00 0.00 76 1023.9
20260906080819 63 180 1.0 2.0 0.00 0.00 0.00 77 1024.0
20260906075819 63 135 2.0 3.0 0.00 0.00 0.00 79 1023.9
20260906074818 61 135 3.0 4.0 0.00 0.00 0.00 82 1024.1
20260906073839 59 45 1.0 2.0 0.00 0.00 0.00 84 1024.0
20260906073023 59 113 2.0 3.0 0.00 0.00 0.00 84 1024.0
20260906072119 58 0.0 1.0 0.00 0.00 0.00 84 1024.1
20260906071119 58 135 1.0 3.0 0.00 0.00 0.00 84 1024.0
20260906070119 58 158 1.0 2.0 0.00 0.00 0.00 85 1024.1
20260906065139 57 0.0 0.0 0.00 0.00 0.00 86 1024.0
20260906064119 57 68 4.0 8.0 0.00 0.00 0.00 86 1024.0
20260906063119 57 158 2.0 4.0 0.00 0.00 0.00 88 1024.1
20260906062119 56 0.0 1.0 0.00 0.00 0.00 88 1024.2
20260906061139 55 180 1.0 2.0 0.00 0.00 0.00 90 1024.3
20260906060139 54 203 1.0 2.0 0.00 0.00 0.00 91 1024.4
20260906055118 53 0.0 0.0 0.00 0.00 0.00 91 1024.5
20260906054118 53 0.0 0.0 0.00 0.00 0.00 91 1024.5
20260906053118 53 0.0 0.0 0.00 0.00 0.00 91 1024.3
20260906052118 53 0.0 0.0 0.00 0.00 0.00 90 1024.2
20260906051118 53 0.0 0.0 0.00 0.00 0.00 90 1024.2
20260906050118 53 0.0 0.0 0.00 0.00 0.00 90 1024.2
20260906045118 53 0.0 0.0 0.00 0.00 0.00 90 1024.0
20260906044118 54 0.0 0.0 0.00 0.00 0.00 90 1024.0
20260906043149 54 0.0 0.0 0.00 0.00 0.00 90 1024.3
20260906042323 54 0.0 0.0 0.00 0.00 0.00 90 1024.4
20260906041119 54 0.0 0.0 0.00 0.00 0.00 89 1024.6
20260906040119 54 0.0 2.0 0.00 0.00 0.00 89 1024.8
20260906035118 54 0.0 0.0 0.00 0.00 0.00 89 1025.0
20260906034118 54 0.0 0.0 0.00 0.00 0.00 88 1025.0
20260906033139 55 0.0 0.0 0.00 0.00 0.00 88 1024.9
20260906032118 55 0.0 0.0 0.00 0.00 0.00 88 1025.0
20260906031118 55 0.0 0.0 0.00 0.00 0.00 87 1025.0
20260906030118 56 0.0 0.0 0.00 0.00 0.00 87 1025.0
20260906025138 56 0.0 0.0 0.00 0.00 0.00 87 1025.0
20260906024118 56 0.0 0.0 0.00 0.00 0.00 87 1025.0
20260906023129 56 0.0 0.0 0.00 0.00 0.00 87 1025.1
20260906022118 56 0.0 0.0 0.00 0.00 0.00 87 1025.3
20260906021118 56 203 1.0 2.0 0.00 0.00 0.00 87 1025.4
20260906020118 56 0.0 0.0 0.00 0.00 0.00 87 1025.6
20260906015118 56 0.0 0.0 0.00 0.00 0.00 87 1025.8
20260906014212 56 0.0 0.0 0.00 0.00 0.00 87 1025.8
20260906013118 56 0.0 0.0 0.00 0.00 0.00 87 1025.8
20260906012118 56 0.0 0.0 0.00 0.00 0.00 86 1025.8
20260906011118 56 0.0 1.0 0.00 0.00 0.00 87 1025.8
20260906010120 56 0.0 0.0 0.00 0.00 0.00 87 1025.7
20260906005118 56 0.0 0.0 0.00 0.00 0.00 87 1025.7
20260906004140 56 0.0 0.0 0.00 0.00 0.00 87 1025.7
20260906003118 56 0.0 0.0 0.00 0.00 0.00 86 1025.7
20260906002141 57 0.0 0.0 0.00 0.00 0.00 86 1025.9
20260906001130 57 0.0 0.0 0.00 0.00 0.00 86 1025.9
20260906000131 57 0.0 0.0 0.00 0.00 0.00 85 1025.9
20260905235129 57 0.0 0.0 0.00 0.00 0.00 84 1025.8
20260905234129 57 0.0 0.0 0.00 0.00 0.00 84 1026.1
20260905233129 58 0.0 0.0 0.00 0.00 0.00 83 1026.1
20260905232129 58 225 3.0 3.0 0.00 0.00 0.00 83 1026.0
20260905231119 58 180 1.0 2.0 0.00 0.00 0.00 83 1025.8
20260905230312 58 0.0 0.0 0.00 0.00 0.00 83 1025.4
20260905225440 58 180 1.0 1.0 0.00 0.00 0.00 84 1025.5
20260905224418 58 0.0 1.0 0.00 0.00 0.00 84 1025.6
20260905223450 58 0.0 0.0 0.00 0.00 0.00 83 1025.5
20260905222418 58 0.0 0.0 0.00 0.00 0.00 83 1025.4